Location: ????????
(55.0097°N, 38.5678°E)
Time: 23:29:43
(UTC+00:00)

NOSS 3-1 (C) - Pass Details

Date: 20 December 2025
Orbit: 618 x 1583 km, 63.4° (Epoch: 10 January)

Event Time Altitude Azimuth Distance (km) Brightness Sun altitude
Rises 15:36:10 0° 198° (SSW) 2,962 6.5 -20.8°
Reaches altitude 10° 15:38:25 10° 190° (S) 2,119 5.5 -21.1°
Enters shadow 15:42:38 38° 127° (SE) 1,152 3.6 -21.7°
